Regional Weather Roundup
Issued by NWS Green Bay, WI

Home | Current Version | Previous Version | Text Only | Print | Product List | Glossary On
Versions: 1 2 3 4 5 6 7 8 9 10 11 12 13 14 15 16 17 18 19 20 21 22 23 24 25 26 27 28 29 30 31 32 33 34 35 36 37 38 39 40 41 42 43 44 45 46 47 48 49 50
000
ASUS43 KGRB 280110
RWRGRB

NORTH-CENTRAL AND NORTHEAST WISCONSIN REGIONAL WEATHER ROUNDUP
NATIONAL WEATHER SERVICE GREEN BAY WI
700 PM CST TUE JAN 27 2015

WIZ005-009-010>012-018-019-280200-
NORTH CENTRAL WISCONSIN

CITY           SKY/WX    TMP DP  RH WIND       PRES   REMARKS
IRONWOOD       CLOUDY    25  21  86 S5        30.13F
MANITOWISH WTR CLOUDY    23  19  86 CALM      30.13F
ARBOR VITAE    CLOUDY    24  20  83 SE5       30.14F
EAGLE RIVER    CLOUDY    23  17  80 CALM      30.15R
LAND O LAKES   CLOUDY    23  19  83 SW3       30.15S
RHINELANDER    CLOUDY    22  17  81 S5        30.16S
PHILLIPS       CLOUDY    24  20  85 S5        30.14S
ANTIGO         CLOUDY    22  18  85 SW6       30.17F
TOMAHAWK       CLOUDY    23  19  85 CALM      30.17R
MERRILL        CLOUDY    24  19  80 CALM      30.17F
$$

WIZ013-073-280200-
NORTHEAST WISCONSIN

CITY           SKY/WX    TMP DP  RH WIND       PRES   REMARKS
IRON MOUNTAIN  CLOUDY    22  17  81 SE5       30.18F
MARINETTE      CLOUDY    21  16  79 CALM      30.24S
OCONTO         MOCLDY    16  15  95 CALM      30.25S
$$

WIZ017-030-035>037-045-280200-
CENTRAL WISCONSIN

CITY           SKY/WX    TMP DP  RH WIND       PRES   REMARKS
MEDFORD        CLOUDY    23  19  86 CALM      30.15S
WAUSAU         CLOUDY    24  19  81 SE6       30.17F
MOSINEE        CLOUDY    25  23  93 SE3       30.19F
MARSHFIELD     CLOUDY    25  20  81 SE5       30.17F
WISC RAPIDS    CLOUDY    25  21  85 SE5       30.21F
STEVENS POINT  CLOUDY    22  19  88 SE3       30.20F
WAUPACA        CLOUDY    27  20  76 CALM      30.23F
SHAWANO        CLOUDY    26  19  74 CALM      30.24F
CLINTONVILLE   CLOUDY    27  19  74 CALM      30.23F
$$

WIZ038-039-048-051-280200-
FOX VALLEY

CITY           SKY/WX    TMP DP  RH WIND       PRES   REMARKS
NWS GREEN BAY  PTCLDY    20  16  84 CALM      30.25R
APPLETON       CLOUDY    25  16  68 VRB3      30.23F
OSHKOSH        CLOUDY    25  17  72 CALM      30.23F
FOND DU LAC    CLOUDY    25  17  72 CALM      30.23F
$$

WIZ022-050-052-280200-
EAST CENTRAL WISCONSIN

CITY           SKY/WX    TMP DP  RH WIND       PRES   REMARKS
STURGEON BAY   PTCLDY    16  12  86 CALM      30.26S
MANITOWOC      CLOUDY    26  19  74 CALM      30.26R
SHEBOYGAN      CLOUDY    25  18  74 CALM      30.25R
$$

LMZ563-521-522-541>543-280200-
LAKESHORE

STATION/POSITION TIME  TEMP    WIND        PRES    VSBY  WAVE
                       AIR SEA DIR/SP/G                  HT/PER
                 (UTC) (F)     (DEG/KT/KT) (MB)    (MI)  (FT/S)
SHEBOYGAN LKSHOR 0100   27      40/  4/  5 1025.6R
KEWAUNEE LKSHORE 0100   25     330/  2/  5 1023.4F
NORTHPORT PIER   0100   19     270/  1/  2 1024.4S
SISTER BAY LKSHO 0100   13        CALM       N/A
STURGEON BAY CG  0100   17     300/  4     1024.3      6   0
CHAMBERS ISLAND  0100   18     130/  2/  4 1024.4S
MENOMINEE LKSHOR 0100   20        CALM     1025.0S
$$



USA.gov is the U.S. government's official web portal to all federal, state and local government web resources and services.